Location: Bannatyne
(13.0833°N, 59.5333°W)
Time: 00:08:03
(UTC+00:00)

A-11 Canister half - All Passes

Search period start: 18 January 2020 00:00
Search period end: 28 January 2020 00:00
Orbit: 1525 x 1684 km, 47.3° (Epoch: 17 January)

Date Brightness Start Highest point End Pass type
(mag) Time Alt. Az. Time Alt. Az. Time Alt. Az.
18 Jan - 05:27:00 10° N 05:34:24 23° NE 05:41:53 10° E visible
18 Jan - 07:30:07 10° NW 07:40:15 90° ENE 07:50:27 10° SE visible
18 Jan - 09:38:38 10° W 09:44:59 18° SW 09:51:21 10° SSW visible
18 Jan - 20:29:41 10° SSW 20:38:49 63° SE 20:48:02 10° NE daylight
18 Jan - 22:36:07 10° W 22:43:59 30° NW 22:52:01 10° NNE visible
19 Jan - 05:05:32 10° N 05:12:39 21° NE 05:19:49 10° E visible
19 Jan - 07:08:28 10° NW 07:18:35 85° NE 07:28:46 10° SE visible
19 Jan - 09:16:32 10° W 09:23:19 20° SW 09:30:08 10° S visible
19 Jan - 20:08:09 10° SSW 20:17:12 59° SE 20:26:20 10° NE daylight
19 Jan - 22:14:16 10° WSW 22:22:18 32° NW 22:30:29 10° NNE visible
20 Jan - 04:44:05 10° N 04:50:53 20° NE 04:57:45 10° E night (unlit)
20 Jan - 06:46:49 10° NW 06:56:55 81° NE 07:07:06 10° SE visible
20 Jan - 08:54:30 10° W 09:01:39 22° SW 09:08:53 10° S visible
20 Jan - 19:46:37 10° SSW 19:55:36 54° SE 20:04:37 10° NE daylight
20 Jan - 21:52:26 10° WSW 22:00:37 34° NW 22:08:57 10° NNE daylight
21 Jan - 04:22:39 10° N 04:29:06 19° NE 04:35:37 10° ENE night (unlit)
21 Jan - 06:25:12 10° NW 06:35:15 76° NE 06:45:25 10° SE visible
21 Jan - 08:32:29 10° WNW 08:40:00 24° SW 08:47:35 10° S visible
21 Jan - 19:25:07 10° SSW 19:34:00 51° SE 19:42:54 10° NE daylight
21 Jan - 21:30:37 10° WSW 21:38:56 37° NW 21:47:26 10° NNE daylight
22 Jan - 04:01:14 10° N 04:07:20 18° NE 04:13:28 10° ENE night (unlit)
22 Jan - 06:03:35 10° NW 06:13:34 72° NE 06:23:42 10° SE visible
22 Jan - 08:10:32 10° WNW 08:18:22 26° SW 08:26:15 10° S visible
22 Jan - 19:03:37 10° SSW 19:12:24 47° SE 19:21:11 10° ENE daylight
22 Jan - 21:08:48 10° WSW 21:17:17 39° NW 21:25:53 10° NNE daylight
23 Jan - 03:39:52 10° N 03:45:33 16° NNE 03:51:17 10° ENE night (unlit)
23 Jan - 05:41:58 10° NW 05:51:54 67° NE 06:01:59 10° SE visible
23 Jan - 07:48:36 10° WNW 07:56:42 28° SW 08:04:53 10° S visible
23 Jan - 18:42:07 10° SSW 18:50:48 44° SE 18:59:26 10° ENE daylight
23 Jan - 20:47:01 10° WSW 20:55:37 42° NW 21:04:20 10° NNE daylight
24 Jan - 03:18:31 10° N 03:23:46 15° NNE 03:29:03 10° ENE night (unlit)
24 Jan - 05:20:22 10° NNW 05:30:13 63° NE 05:40:14 10° SE visible
24 Jan - 07:26:43 10° WNW 07:35:03 30° SW 07:43:30 10° S visible
24 Jan - 18:20:39 10° SSW 18:29:11 41° SE 18:37:40 10° ENE daylight
24 Jan - 20:25:15 10° WSW 20:33:57 45° NW 20:42:47 10° NNE daylight
25 Jan - 02:57:12 10° N 03:01:58 14° NNE 03:06:46 10° ENE night (unlit)
25 Jan - 04:58:46 10° NNW 05:08:33 60° NE 05:18:29 10° SE visible
25 Jan - 07:04:51 10° WNW 07:13:23 32° SW 07:22:04 10° S visible
25 Jan - 17:59:12 10° SSW 18:07:35 38° SE 18:15:54 10° ENE daylight
25 Jan - 20:03:30 10° WSW 20:12:18 48° NW 20:21:13 10° NNE daylight
25 Jan - 22:17:36 10° NW 22:19:13 10° NNW 22:20:50 10° NNW visible
26 Jan - 02:35:57 10° N 02:40:10 13° NNE 02:44:24 10° ENE night (unlit)
26 Jan - 04:37:11 10° NNW 04:46:52 56° NE 04:56:43 10° ESE night (unlit)
26 Jan - 06:43:00 10° WNW 06:51:45 35° SW 07:00:38 10° S visible
26 Jan - 17:37:45 10° S 17:45:59 35° SE 17:54:06 10° ENE daylight
26 Jan - 19:41:44 10° WSW 19:50:40 51° NW 19:59:39 10° NNE daylight
26 Jan - 21:54:49 10° NW 21:57:25 11° NNW 22:00:01 10° NNW daylight
27 Jan - 02:14:47 10° N 02:18:21 12° NNE 02:21:57 10° NE night (unlit)
27 Jan - 04:15:37 10° NNW 04:25:11 52° NE 04:34:57 10° ESE night (unlit)
27 Jan - 06:21:10 10° WNW 06:30:05 37° SW 06:39:10 10° SSE visible
27 Jan - 17:16:21 10° S 17:24:22 32° SE 17:32:18 10° ENE daylight
27 Jan - 19:20:01 10° WSW 19:29:01 54° NW 19:38:05 10° NNE daylight
27 Jan - 21:32:20 10° NW 21:35:37 12° NNW 21:38:56 10° N daylight
